Temp
8 9 9 10 11 12 13 14 14 14 13 13 12 12 12 12 12 12 11 11 10 9 9 10 9 8 7 7 6 6 5 4 4 4 3 3 3 3 3 3 2 2 2 2
9 9 11 11 11 12 12 13 13 13 13 12 12 11 11 12 12 12 11 11 10 9 10 10 9 8 8 7 6 6 5 4 4 3 3 3 3 3 3 3 3 2 2 2
10 11 11 12 12 12 12 12 13 13 13 12 12 12 13 13 12 12 11 11 10 9 10 10 10 8 7 6 6 6 5 4 4 4 3 3 3 3 3 3 3 3 3 3
11 12 12 12 12 12 13 12 12 12 12 12 12 13 13 13 13 12 12 11 10 8 10 10 9 8 7 6 6 6 5 4 3 3 3 3 3 3 3 3 2 2 2 2
11 11 12 12 12 12 13 12 12 12 11 11 12 12 13 13 13 13 12 12 10 9 10 10 9 8 7 6 6 6 5 4 3 4 4 3 3 3 3 3 3 2 2 2
11 12 12 13 13 12 12 12 12 12 11 12 12 13 13 14 13 12 12 12 10 10 10 9 9 8 7 6 6 5 5 4 4 4 4 3 3 3 3 3 2 2 2 2
11 12 12 13 12 12 12 12 12 12 13 13 13 13 13 13 13 12 12 11 10 9 10 9 9 7 6 6 6 5 5 4 4 4 4 4 4 3 3 3 3 3 2 3
12 12 12 12 12 12 12 11 13 12 14 16 13 13 14 13 12 12 11 10 10 10 9 9 8 7 6 6 6 5 5 4 4 4 4 4 4 3 3 3 3 2 2 3
12 13 13 12 12 12 12 11 12 12 13 14 14 14 13 12 12 12 11 10 10 10 9 8 8 7 7 6 6 5 5 4 5 4 4 4 4 3 3 3 3 2 3 3
13 13 13 12 11 12 12 12 12 12 12 13 15 14 14 12 13 12 11 10 10 10 9 8 8 7 7 6 6 6 5 5 4 5 4 4 4 3 3 3 3 2 2 3
12 13 13 13 11 12 12 12 12 12 13 14 14 15 13 13 12 12 11 10 10 9 9 8 7 7 7 6 6 6 5 5 5 4 4 4 4 3 3 3 3 2 2 2
11 12 13 13 12 12 12 12 12 12 12 13 14 15 13 12 12 11 11 10 10 9 9 8 7 8 7 7 6 6 5 5 5 5 4 4 4 3 3 3 3 3 2 2
11 11 12 13 12 12 12 12 12 12 12 13 14 14 13 12 11 11 11 10 9 8 8 8 7 8 8 7 7 6 6 5 5 5 5 4 4 4 3 3 3 3 3 2
10 11 11 14 12 12 11 12 12 11 12 12 13 14 13 12 12 11 11 10 9 8 8 8 8 8 8 7 7 7 6 6 5 5 5 5 4 4 4 4 4 4 4 3
10 10 11 12 13 12 12 11 12 12 12 12 12 13 13 13 12 12 11 10 9 8 7 8 8 8 8 8 7 7 7 6 6 5 5 5 5 4 4 4 4 4 4 4
9 10 10 11 12 13 12 11 12 12 12 12 12 12 13 13 12 12 11 10 9 8 8 7 8 8 9 8 8 7 7 7 6 6 6 5 5 5 4 4 4 5 5 5
9 9 9 11 11 12 13 12 12 12 12 12 12 12 12 12 12 12 11 10 9 9 8 8 9 8 9 9 8 8 7 7 7 6 6 6 6 5 5 5 5 5 6 5
8 8 10 10 11 12 12 12 12 12 12 12 11 12 12 12 12 12 11 11 10 9 9 8 9 8 8 9 8 8 8 7 7 7 7 6 6 6 6 5 5 5 5 5
8 8 10 11 11 12 12 12 12 12 12 11 11 11 12 12 12 12 11 11 10 9 9 9 9 9 8 8 9 9 8 8 8 7 7 7 7 6 6 6 5 5 5 5
8 8 9 10 11 12 12 12 11 12 11 11 11 11 11 11 12 12 11 11 10 9 9 8 8 9 8 8 9 9 9 8 8 8 7 7 7 7 7 6 6 6 6 5
7 8 8 10 10 12 12 12 10 11 12 11 11 11 11 11 12 12 11 11 10 9 9 9 8 9 9 9 9 9 9 9 8 8 8 8 8 8 8 7 7 7 6 6
7 7 9 9 10 12 11 11 10 11 11 11 11 11 11 11 11 11 11 10 10 9 9 8 9 9 9 9 9 9 9 9 8 8 8 8 8 8 8 8 8 7 7 7
7 8 9 9 10 10 11 11 10 10 10 11 11 11 11 11 11 11 10 10 9 9 8 8 9 9 9 9 9 9 9 9 9 8 8 8 7 7 7 8 8 7 7 7
6 8 8 9 9 9 9 9 9 9 10 10 10 10 10 10 10 10 10 9 9 9 8 8 9 9 9 9 10 9 8 9 9 9 9 8 8 7 7 7 7 7 7 7
3 2 7 7 8 7 8 9 8 9 9 9 9 10 10 10 10 10 9 9 9 9 8 9 9 9 10 10 10 10 9 9 9 9 9 9 9 8 7 7 7 7 7 6
-0 -0 4 6 5 6 7 7 8 8 8 8 8 9 9 10 10 9 9 9 8 9 8 8 10 9 10 10 9 10 10 9 9 9 9 9 9 8 8 7 7 6 6 6
Height
3110 3115 3111 3113 3118 3122 3122 3121 3119 3121 3123 3123 3124 3124 3124 3122 3120 3118 3117 3116 3115 3112 3110 3109 3108 3107 3105 3103 3099 3095 3092 3087 3084 3079 3077 3073 3069 3065 3061 3055 3049 3049 3049 3050
3109 3100 3108 3114 3117 3118 3118 3117 3118 3120 3121 3121 3121 3119 3118 3116 3113 3111 3109 3111 3110 3107 3106 3106 3105 3103 3102 3100 3097 3094 3091 3087 3083 3079 3077 3074 3071 3067 3063 3059 3053 3050 3050 3050
3093 3098 3106 3109 3110 3112 3112 3114 3115 3116 3117 3117 3118 3113 3110 3109 3107 3105 3105 3105 3106 3103 3102 3102 3101 3100 3100 3098 3095 3093 3090 3087 3083 3080 3078 3075 3072 3068 3064 3061 3057 3053 3050 3051
3090 3096 3099 3100 3102 3106 3106 3110 3113 3114 3115 3113 3114 3105 3106 3103 3101 3101 3101 3101 3102 3100 3099 3098 3097 3097 3097 3096 3094 3091 3088 3087 3084 3081 3078 3076 3072 3067 3063 3061 3059 3055 3052 3051
3077 3087 3090 3092 3095 3100 3103 3107 3109 3110 3112 3111 3109 3106 3099 3098 3096 3098 3097 3097 3097 3096 3096 3095 3094 3094 3095 3094 3092 3090 3088 3087 3084 3082 3080 3077 3072 3067 3062 3060 3059 3057 3054 3052
3077 3082 3084 3087 3091 3096 3101 3104 3106 3107 3108 3104 3103 3102 3094 3092 3093 3096 3096 3096 3094 3093 3092 3091 3092 3092 3092 3092 3090 3089 3087 3087 3085 3083 3081 3078 3073 3068 3062 3060 3059 3058 3057 3054
3070 3070 3077 3081 3086 3091 3095 3100 3101 3104 3100 3095 3093 3094 3091 3091 3092 3094 3094 3094 3092 3090 3089 3088 3090 3090 3090 3090 3089 3087 3087 3087 3085 3084 3082 3079 3075 3070 3065 3063 3062 3060 3059 3058
3059 3063 3066 3069 3075 3082 3087 3092 3091 3093 3087 3081 3085 3088 3087 3088 3090 3091 3092 3091 3089 3087 3086 3086 3089 3088 3088 3088 3087 3087 3086 3086 3085 3085 3083 3082 3078 3076 3071 3068 3066 3063 3063 3062
3049 3052 3061 3065 3072 3078 3080 3084 3089 3088 3083 3081 3080 3081 3083 3085 3087 3087 3089 3088 3086 3084 3085 3087 3087 3087 3087 3087 3086 3086 3086 3085 3085 3085 3084 3083 3080 3078 3076 3073 3070 3068 3067 3066
3042 3050 3051 3060 3068 3071 3073 3081 3085 3085 3084 3082 3076 3076 3078 3082 3084 3085 3086 3085 3084 3084 3085 3086 3085 3085 3086 3086 3086 3085 3085 3085 3085 3085 3084 3084 3082 3080 3079 3077 3075 3072 3071 3071
3040 3044 3047 3052 3054 3058 3067 3070 3075 3078 3079 3075 3074 3072 3072 3078 3081 3084 3084 3084 3083 3083 3084 3085 3084 3085 3086 3086 3085 3085 3085 3085 3085 3085 3085 3084 3083 3081 3082 3081 3079 3077 3075 3075
3027 3038 3038 3038 3048 3055 3059 3063 3068 3071 3076 3074 3071 3069 3071 3077 3080 3082 3083 3083 3082 3083 3083 3084 3084 3084 3085 3086 3085 3085 3084 3084 3085 3085 3086 3085 3084 3083 3083 3083 3082 3081 3081 3077
3026 3030 3035 3037 3046 3048 3051 3057 3062 3067 3070 3067 3070 3070 3071 3074 3078 3080 3082 3082 3081 3081 3082 3083 3083 3083 3085 3086 3085 3085 3084 3085 3086 3085 3086 3086 3085 3085 3085 3085 3086 3086 3086 3085
3022 3021 3022 3018 3025 3039 3046 3049 3055 3060 3062 3066 3065 3065 3067 3072 3075 3077 3080 3080 3080 3080 3081 3082 3082 3083 3084 3085 3085 3086 3085 3085 3086 3086 3086 3088 3087 3087 3087 3088 3089 3090 3090 3091
3011 3014 3019 3022 3027 3033 3038 3043 3047 3049 3055 3059 3062 3063 3065 3068 3071 3073 3075 3078 3079 3078 3080 3081 3082 3082 3084 3085 3085 3086 3087 3086 3086 3087 3087 3089 3089 3089 3089 3090 3091 3093 3093 3095
3002 3007 3015 3018 3022 3025 3030 3036 3040 3043 3049 3054 3058 3059 3062 3064 3068 3070 3072 3074 3076 3077 3079 3080 3081 3081 3083 3084 3085 3086 3087 3087 3087 3087 3087 3090 3091 3091 3091 3092 3093 3096 3097 3098
2995 3001 3010 3011 3016 3019 3020 3022 3030 3037 3042 3047 3050 3056 3058 3061 3064 3067 3069 3071 3073 3074 3077 3078 3079 3080 3082 3084 3085 3086 3087 3088 3088 3089 3089 3089 3091 3092 3093 3094 3096 3097 3099 3101
2988 2996 3001 3006 3009 3007 3008 3020 3025 3030 3036 3041 3046 3050 3054 3057 3060 3062 3066 3068 3070 3071 3074 3076 3076 3078 3080 3082 3084 3085 3087 3088 3089 3089 3090 3090 3092 3093 3095 3096 3098 3099 3101 3103
2982 2991 2994 2996 2999 3007 3007 3014 3017 3022 3028 3035 3039 3044 3048 3052 3056 3058 3061 3063 3066 3068 3070 3072 3074 3076 3078 3080 3083 3085 3086 3088 3088 3090 3091 3092 3092 3094 3095 3097 3099 3101 3103 3105
2978 2985 2989 2991 2991 2992 3001 3008 3013 3020 3020 3027 3033 3038 3042 3047 3048 3052 3056 3060 3062 3065 3067 3070 3072 3073 3075 3078 3081 3083 3085 3087 3088 3089 3091 3093 3094 3095 3096 3098 3100 3102 3104 3106
2971 2977 2980 2984 2989 2990 2998 3002 3008 3011 3015 3020 3027 3032 3036 3040 3045 3050 3053 3055 3058 3061 3064 3066 3069 3071 3073 3076 3079 3081 3084 3086 3088 3089 3091 3093 3095 3096 3097 3099 3101 3103 3105 3107
2965 2971 2974 2982 2984 2986 2992 2997 3001 3008 3010 3014 3020 3027 3031 3036 3041 3045 3049 3051 3054 3057 3060 3062 3066 3069 3072 3074 3077 3080 3082 3084 3086 3089 3090 3092 3094 3096 3098 3100 3102 3103 3105 3108
2960 2964 2969 2975 2981 2984 2988 2994 2997 3005 3010 3014 3019 3023 3027 3031 3036 3040 3045 3048 3051 3054 3056 3059 3063 3066 3069 3072 3075 3078 3080 3082 3084 3086 3089 3091 3093 3095 3097 3100 3102 3104 3106 3108
2956 2962 2965 2973 2975 2978 2983 2990 2995 3001 3007 3013 3016 3019 3023 3027 3031 3035 3039 3043 3046 3049 3052 3055 3059 3062 3065 3069 3073 3076 3077 3080 3082 3084 3086 3088 3091 3094 3096 3098 3101 3103 3106 3108
2952 2955 2959 2968 2972 2977 2980 2987 2992 2999 3005 3007 3012 3017 3020 3023 3028 3032 3036 3038 3043 3046 3048 3051 3055 3059 3062 3065 3069 3072 3074 3077 3079 3081 3084 3086 3088 3091 3094 3098 3101 3103 3105 3108
2950 2951 2957 2964 2968 2971 2977 2983 2989 2996 3000 3006 3009 3014 3018 3022 3026 3029 3032 3035 3038 3043 3047 3048 3051 3055 3058 3060 3064 3067 3070 3073 3075 3078 3080 3083 3085 3088 3091 3093 3096 3100 3103 3106
Wind_Speed
30 31 39 41 38 31 27 25 21 18 14 19 20 24 26 25 26 27 25 22 19 19 18 18 17 16 17 19 19 20 17 11 11 11 8 10 10 17 23 23 13 5 9 7
30 42 36 31 32 32 30 26 25 22 19 19 22 27 27 27 26 24 23 20 19 20 19 18 16 15 15 17 16 17 14 8 9 11 8 7 8 13 17 24 19 9 3 10
43 33 31 33 32 32 30 27 25 22 20 19 20 31 25 18 20 18 14 18 16 18 18 17 17 14 14 15 14 14 11 5 9 9 9 10 11 12 12 14 19 14 4 9
38 32 29 34 35 32 31 25 23 21 21 23 19 24 21 18 14 14 15 16 15 16 15 16 16 12 13 13 12 11 8 4 6 9 8 12 14 15 13 10 11 9 10 6
43 34 37 33 36 31 30 21 21 20 21 24 24 19 23 16 14 9 8 13 13 14 15 17 13 11 12 11 10 8 6 4 3 8 12 15 16 16 10 9 8 6 8 8
38 32 31 34 29 28 23 23 19 18 19 21 24 22 24 14 4 7 6 7 10 17 19 18 12 10 12 8 8 6 4 4 1 4 10 15 19 15 12 7 5 7 7 8
36 40 33 28 29 27 25 21 18 15 17 14 19 16 16 15 10 10 7 7 10 16 17 13 10 10 10 6 6 5 4 4 1 4 8 14 17 20 18 12 10 6 8 9
39 40 39 34 36 33 29 28 20 15 13 14 12 9 8 6 7 9 8 8 14 17 13 11 9 9 8 6 5 6 5 4 3 4 5 9 12 15 16 11 11 15 12 13
40 38 37 37 33 34 30 33 29 26 23 16 10 9 12 9 8 6 7 9 13 11 12 10 7 9 8 6 4 6 6 5 3 5 4 5 6 7 10 14 12 13 13 13
24 29 31 39 30 34 33 23 28 27 17 16 16 12 7 9 6 3 5 6 9 11 12 5 7 9 8 5 4 5 6 4 4 4 4 3 3 2 5 9 11 13 10 13
36 28 35 36 42 38 37 33 28 23 23 11 10 11 9 9 6 4 4 7 8 12 10 3 7 9 8 5 4 4 6 3 1 4 3 2 2 2 2 6 10 11 15 12
48 25 30 42 38 34 37 38 33 21 23 21 19 6 6 8 9 7 6 7 9 15 12 5 8 9 8 6 2 3 5 4 2 2 1 2 2 2 1 1 6 8 13 18
46 34 32 33 32 35 37 36 33 31 23 21 16 19 12 9 11 9 7 8 9 18 16 9 8 10 8 7 4 2 3 4 3 3 1 2 4 4 2 2 3 9 14 18
48 39 41 31 42 36 35 38 36 32 33 26 25 20 12 13 12 12 9 11 15 20 19 11 5 11 9 8 7 4 2 3 4 4 3 4 4 3 4 6 6 9 12 14
49 48 41 39 28 32 34 37 39 38 35 33 26 24 21 16 12 13 12 12 14 21 23 16 6 9 11 9 8 6 3 3 4 4 5 5 4 4 9 10 9 9 14 15
44 50 38 38 35 32 33 34 36 38 35 33 29 24 17 16 16 13 14 10 14 21 24 20 10 7 12 9 8 7 5 5 5 6 5 7 6 7 9 10 12 11 12 15
41 45 44 35 35 37 35 38 38 35 34 34 33 30 19 15 19 15 14 13 14 19 24 22 12 9 7 12 9 7 6 6 6 5 5 7 9 8 10 10 12 11 10 11
46 41 33 38 34 29 39 36 32 34 32 32 31 28 25 23 19 18 18 17 15 20 24 24 17 15 12 12 14 11 8 7 7 6 5 6 10 12 12 12 11 10 9 8
47 42 30 29 34 25 34 26 35 35 33 31 30 29 27 22 21 21 19 20 17 18 22 24 20 18 18 14 15 14 10 8 9 8 7 6 8 11 13 14 14 13 12 11
36 42 35 32 23 27 35 31 22 29 36 29 29 28 26 24 25 22 19 20 19 18 19 24 24 19 22 20 16 17 13 10 9 10 9 8 8 10 12 14 15 14 13 12
36 39 40 33 28 27 33 22 20 30 31 30 30 29 26 28 24 16 16 22 22 19 20 23 25 16 8 14 15 17 17 13 11 13 13 11 10 10 11 13 14 14 15 14
39 39 38 38 30 21 30 24 29 22 8 22 27 27 25 25 23 20 13 18 20 21 21 25 25 20 16 13 10 11 17 18 15 13 15 15 13 12 13 13 14 15 15 15
42 42 38 39 34 28 22 26 27 17 17 17 17 18 22 21 20 23 22 21 20 23 24 24 25 24 24 18 13 9 10 19 20 17 15 17 16 15 16 15 15 15 16 16
29 37 32 32 26 22 23 22 20 19 18 16 15 17 20 19 20 21 22 18 19 24 25 25 25 28 26 23 16 15 16 15 21 22 19 17 18 19 18 19 18 17 17 17
28 11 26 31 25 25 22 25 16 24 21 17 20 15 14 19 19 19 18 18 21 24 24 26 24 24 24 27 25 22 22 18 15 19 23 21 19 20 20 19 17 17 17 16
17 14 18 25 21 19 19 19 18 18 20 16 14 15 14 15 17 15 14 16 21 25 23 22 21 22 24 25 31 28 25 25 19 16 17 25 24 21 21 22 22 21 20 19
Wind_Direction
216 214 213 215 218 229 240 254 261 259 264 251 258 274 276 280 279 279 274 260 252 245 255 280 288 286 294 314 327 334 334 345 349 5 1 5 48 28 27 14 16 336 207 191
211 220 219 223 224 230 238 249 255 256 262 262 271 276 282 282 280 280 267 249 249 249 261 286 292 285 291 310 326 331 332 353 4 9 13 24 40 27 21 22 31 27 188 196
212 223 221 221 223 227 233 241 249 256 266 262 274 279 279 283 280 277 254 241 244 254 266 283 290 282 285 304 322 327 335 335 14 13 49 21 7 3 6 13 23 38 43 193
223 219 222 221 224 225 235 238 248 258 264 263 268 290 290 289 280 277 260 251 245 234 266 281 280 267 276 300 316 322 338 311 30 16 2 345 354 344 337 337 1 36 55 176
222 218 219 220 222 224 233 236 246 248 257 267 265 268 282 283 265 291 267 249 231 246 281 281 266 252 266 290 308 318 332 282 37 22 32 16 356 355 351 347 345 31 53 87
224 221 221 223 222 222 228 235 243 250 254 257 260 260 271 279 255 282 282 235 237 271 281 271 253 241 255 279 297 311 304 272 25 356 21 11 9 3 357 20 27 91 73 73
216 218 220 217 215 217 217 217 225 230 234 248 254 244 268 273 274 275 269 257 245 262 277 253 219 234 250 268 284 284 262 255 269 324 6 13 19 27 56 71 78 101 81 81
209 213 211 208 211 207 210 210 220 215 233 249 170 239 281 232 242 263 264 243 245 271 260 203 209 230 241 258 267 252 247 252 255 288 341 3 17 34 60 83 62 59 85 93
207 217 211 212 213 208 207 218 223 254 277 291 237 246 253 231 252 237 240 265 268 265 192 188 214 222 230 251 255 235 239 234 263 282 306 339 14 16 45 58 67 63 90 100
217 215 217 208 210 213 213 214 218 231 247 261 243 242 241 188 206 218 227 264 263 195 187 192 224 212 221 238 246 233 228 222 247 273 293 316 341 3 42 53 55 57 91 108
214 211 205 201 204 205 206 220 215 233 224 235 248 266 164 190 211 251 217 224 235 202 189 205 205 208 215 221 236 229 220 209 232 255 282 308 274 262 73 51 60 65 53 114
207 213 219 207 210 211 213 213 213 215 223 243 262 239 158 201 219 216 216 207 226 207 196 209 194 201 211 209 210 228 214 220 212 255 278 263 206 197 219 37 49 61 57 97
200 212 217 202 209 212 215 214 218 223 233 231 223 244 233 207 209 217 225 207 214 198 194 205 204 197 210 206 188 199 199 205 202 238 156 201 186 162 170 174 79 83 83 93
201 207 207 208 204 200 209 215 214 217 219 228 234 246 188 205 209 218 216 212 202 194 197 206 210 196 207 208 191 193 161 166 173 200 155 165 186 160 136 143 106 92 94 106
202 213 213 218 210 205 211 213 216 217 220 222 228 233 238 233 228 223 212 215 207 199 199 204 215 202 204 212 199 198 182 139 143 167 172 162 169 157 138 140 121 106 105 109
200 211 211 219 218 212 211 216 219 222 223 227 229 235 233 225 221 220 210 219 214 204 204 203 226 206 202 206 197 196 208 151 137 138 181 166 167 157 141 139 140 124 117 115
195 205 210 222 214 220 221 215 218 221 223 222 223 226 222 222 213 216 220 224 217 207 203 203 204 199 202 210 197 194 197 190 154 139 156 170 170 167 164 151 154 146 137 129
196 199 200 211 213 215 222 222 221 223 224 222 225 225 224 226 225 227 228 225 217 209 203 206 209 210 209 211 203 197 195 191 176 152 149 170 175 176 178 180 177 172 166 158
200 198 203 206 210 216 221 222 217 217 224 218 221 223 225 224 223 228 223 218 218 213 210 212 218 219 219 221 216 202 194 193 185 172 154 160 174 179 184 186 189 192 187 181
199 203 208 208 211 213 216 216 215 215 226 214 217 218 223 212 219 223 216 216 217 212 208 206 210 221 223 223 216 208 198 192 190 179 174 166 171 175 179 187 189 187 190 191
196 198 208 213 215 217 210 205 198 205 228 215 215 219 213 211 214 218 223 220 215 213 206 206 201 220 219 218 219 209 203 193 192 189 187 184 176 175 174 176 179 182 185 186
200 200 205 209 203 216 205 199 193 201 218 193 205 209 207 210 211 213 216 204 209 204 201 202 205 214 208 207 205 219 211 196 199 203 197 194 188 183 180 174 173 175 176 175
206 206 205 207 209 214 200 205 194 182 182 175 193 191 198 207 209 211 215 216 216 205 198 199 211 211 213 214 213 219 218 209 205 204 209 204 197 191 186 185 182 178 177 177
215 205 206 208 205 184 180 189 189 179 188 198 202 201 200 204 205 197 207 210 207 197 196 201 214 220 223 223 223 217 215 221 218 213 208 210 205 203 199 194 192 191 187 185
192 215 193 197 203 194 182 188 173 186 185 196 178 180 187 189 192 194 206 208 199 198 200 207 215 224 229 226 221 221 216 223 224 225 221 217 211 208 205 209 210 204 198 196
238 221 201 191 191 175 182 177 178 190 198 204 197 190 189 186 194 202 208 206 202 203 205 210 220 229 239 234 224 222 222 228 233 234 233 226 224 215 209 208 210 211 210 207